AU224 Weather Reports


time (UTC)temp
C
wind
direction
speed
KPH
gust
KPH
rain 1hr
cm
rain 24hr
cm
rain mn
cm
humidity
%
barometer
mb
20260507044557 7 226 0.0 12.9 0.00 0.03 0.00 79 1008.5
20260507043042 7 0 0.0 11.3 0.00 0.03 0.00 79 1008.4
20260507041546 7 0 0.0 8.0 0.00 0.03 0.00 78 1008.2
20260507040049 7 0 0.0 6.4 0.00 0.03 0.00 78 1008.1
20260507034545 7 0 0.0 6.4 0.00 0.03 0.00 78 1007.9
20260507033058 7 0 0.0 6.4 0.00 0.03 0.00 79 1007.9
20260507031557 7 0 0.0 6.4 0.00 0.03 0.00 79 1007.7
20260507024604 7 0 0.0 6.4 0.00 0.03 0.00 80 1007.7
20260507023046 7 0 0.0 4.8 0.00 0.03 0.00 81 1007.6
20260507021551 7 0 0.0 1.6 0.00 0.03 0.00 79 1007.7
20260507020056 7 0 0.0 0.0 0.00 0.03 0.00 79 1007.6
20260507014554 7 0 0.0 4.8 0.00 0.03 0.00 78 1007.5
20260507013053 7 0 0.0 0.0 0.00 0.03 0.00 76 1007.5
20260507011553 7 0 0.0 3.2 0.00 0.03 0.00 77 1007.3
20260507010048 7 0 0.0 4.8 0.00 0.03 0.00 77 1007.5
20260507004550 7 0 0.0 4.8 0.00 0.03 0.00 76 1007.5
20260507003049 8 193 0.0 3.2 0.00 0.03 0.00 76 1007.5
20260507001541 8 0 0.0 3.2 0.00 0.03 0.00 75 1007.4
20260507000040 8 0 0.0 3.2 0.00 0.03 0.00 76 1007.5
20260506234551 8 0 0.0 4.8 0.00 0.03 0.00 76 1007.5
20260506233048 8 237 0.0 6.4 0.00 0.03 0.00 76 1007.5
20260506231552 8 0 0.0 9.7 0.00 0.03 0.00 76 1007.4
20260506230043 8 0 0.0 11.3 0.00 0.03 0.00 76 1007.2
20260506224549 8 0 0.0 6.4 0.00 0.03 0.00 76 1007.1
20260506223042 8 163 3.2 11.3 0.00 0.03 0.00 75 1007.2
20260506221549 8 0 0.0 14.5 0.00 0.03 0.00 75 1007.1
20260506220052 8 282 1.6 19.3 0.00 0.03 0.00 75 1007.1
20260506214546 8 0 1.6 9.7 0.00 0.03 0.03 76 1006.9
20260506213052 8 0 0.0 8.0 0.00 0.03 0.03 76 1006.9
20260506211547 9 360 0.0 12.9 0.00 0.03 0.03 76 1006.8
20260506210050 9 0 0.0 12.9 0.00 0.03 0.03 75 1006.8
20260506204548 9 285 0.0 16.1 0.00 0.05 0.03 75 1006.7
20260506203044 9 203 4.8 20.9 0.00 0.05 0.03 74 1006.5
20260506201544 8 214 3.2 20.9 0.00 0.05 0.03 74 1006.2
20260506200047 9 165 1.6 19.3 0.00 0.05 0.03 73 1006.1
20260506194547 9 271 1.6 12.9 0.00 0.05 0.03 73 1006.2
20260506193048 9 163 0.0 14.5 0.00 0.05 0.03 73 1006.1
20260506191547 10 196 0.0 14.5 0.00 0.05 0.03 72 1006.1
20260506190053 10 237 0.0 9.7 0.00 0.05 0.03 71 1006.1
20260506184551 10 360 1.6 12.9 0.00 0.05 0.03 71 1005.9
20260506183047 10 0 3.2 17.7 0.00 0.05 0.03 70 1005.8
20260506181543 10 0 0.0 17.7 0.00 0.05 0.03 69 1005.8
20260506180054 10 0 1.6 25.7 0.00 0.05 0.03 69 1005.3
20260506174548 10 202 0.0 16.1 0.00 0.05 0.03 70 1005.3
20260506173121 10 0 4.8 20.9 0.00 0.05 0.03 70 1004.6
20260506171544 11 0 4.8 25.7 0.00 0.05 0.03 69 1004.4
20260506170047 11 259 11.3 30.6 0.00 0.05 0.03 68 1004.3
20260506164555 11 173 9.7 32.2 0.00 0.05 0.03 68 1004.2
20260506163058 11 360 11.3 32.2 0.00 0.05 0.03 67 1004.3
20260506161603 12 253 16.1 0.0 0.00 0.05 0.03 72 1004.1
20260506160047 12 0 8.0 25.7 0.00 0.05 0.03 73 1003.9
20260506154551 12 229 6.4 24.1 0.00 0.05 0.03 69 1003.9
20260506153056 16 16 12.9 59.5 0.00 0.05 0.03 57 1003.1
20260506151550 17 192 1.6 12.9 0.00 0.03 0.00 59 1002.2
20260506150046 17 169 1.6 14.5 0.00 0.03 0.00 60 1001.9
20260506144546 16 0 1.6 12.9 0.00 0.03 0.00 62 1002.1
20260506143045 15 0 0.0 6.4 0.00 0.03 0.00 67 1002.0
20260506141543 15 180 0.0 11.3 0.00 0.03 0.00 64 1002.2
20260506140049 15 232 4.8 14.5 0.00 0.03 0.00 66 1002.3
20260506134545 13 0 3.2 12.9 0.00 0.03 0.00 72 1002.7
20260506133047 15 179 1.6 9.7 0.00 0.03 0.00 66 1002.8
20260506131550 15 0 0.0 11.3 0.00 0.03 0.00 66 1002.4
20260506130058 15 0 0.0 0.0 0.00 0.00 0.00 60 1002.2
20260506124557 15 0 0.0 6.4 0.00 0.00 0.00 60 1001.9
20260506123048 16 0 0.0 6.4 0.00 0.00 0.00 58 1001.9
20260506121545 16 0 0.0 3.2 0.00 0.00 0.00 58 1002.0
20260506120049 16 58 0.0 11.3 0.00 0.00 0.00 57 1002.0
20260506114550 16 0 4.8 16.1 0.00 0.00 0.00 58 1002.0
20260506113051 16 0 0.0 11.3 0.00 0.00 0.00 57 1002.3
20260506111543 17 66 3.2 14.5 0.00 0.00 0.00 55 1002.4
20260506110055 17 0 0.0 9.7 0.00 0.00 0.00 55 1002.2
20260506104551 17 0 0.0 11.3 0.00 0.00 0.00 56 1002.6
20260506103050 17 0 0.0 8.0 0.00 0.00 0.00 55 1002.8
20260506101553 16 0 3.2 8.0 0.00 0.00 0.00 58 1003.1
20260506100104 16 360 0.0 9.7 0.00 0.00 0.00 60 1003.3
20260506094550 16 0 0.0 6.4 0.00 0.00 0.00 59 1003.1
20260506093046 15 0 0.0 6.4 0.00 0.00 0.00 62 1003.1
20260506091542 15 0 0.0 1.6 0.00 0.00 0.00 65 1003.3
20260506090045 15 0 0.0 4.8 0.00 0.00 0.00 61 1003.4
20260506084607 14 0 0.0 4.8 0.00 0.00 0.00 63 1003.3
20260506083046 14 0 0.0 4.8 0.00 0.00 0.00 63 1003.4
20260506081553 13 0 0.0 0.0 0.00 0.00 0.00 66 1003.4
20260506073051 13 0 0.0 0.0 0.00 0.00 0.00 67 1003.4
20260506071551 12 0 0.0 0.0 0.00 0.00 0.00 72 1003.6
20260506061548 11 0 0.0 3.2 0.00 0.00 0.00 76 1003.6